[[{"header":{"parameterUnit":"m.s-1","parameterCategory":1,"la1":30.2991,"la2":30.254,"lo1":-89.0895,"lo2":-89.0444,"dy":0.0017,"dx":0.0017,"nx":28,"ny":28,"refTime":"2024-10-10T09:00:00:Z","depth":0,"parameterNumber":2,"parameterNumberName":"U-component_of_WINDS"},"data":[0,0,0,0,0,0,0,0,0,0,0,0,0,0,0,0,0,0,0,0,0,0,0,0,0,0,0,0,0,0,0,0,0,0,0,0,0,0,0,0,0,0,0,0,0,0,0,0,0,0,0,0,0,0,0,0,0,0,-2.2236,-2.2236,0,-2.2235,-2.2235,-2.2235,-2.214,-2.2137,-2.2135,-2.2132,-2.2135,-2.2137,-2.214,0,0,0,0,0,0,0,0,0,0,0,0,0,-2.216,-2.2162,-2.2236,-2.2236,-2.2236,-2.2235,-2.2235,-2.2235,-2.214,-2.2137,-2.2134,-2.2131,-2.2134,-2.2137,-2.214,0,0,0,0,0,0,0,0,0,0,0,0,0,-2.218,-2.2163,-2.2236,-2.2188,-2.2184,-2.2235,-2.2235,-2.2235,-2.2141,-2.2137,-2.2133,-2.213,-2.2133,-2.2137,-2.214,-2.2237,0,0,-2.2151,-2.2153,0,0,0,0,0,0,0,0,-2.2179,-2.2183,-2.2195,-2.2192,-2.2187,-2.2183,-2.2209,-2.2236,-2.2142,-2.2157,-2.2132,-2.2128,-2.2154,-2.2156,-2.2164,-2.2237,-2.2237,-2.2152,-2.2154,-2.2155,-2.2156,0,0,0,0,0,0,0,-2.2178,-2.2182,-2.2235,-2.2196,-2.2191,-2.2169,-2.2167,-2.2214,-2.2177,-2.2156,-2.2149,-2.215,-2.2151,-2.2161,-2.2163,-2.2237,-2.2151,-2.2155,-2.2157,-2.2158,-2.2393,-2.2397,0,0,0,0,0,0,-2.2182,-2.2182,-2.2235,-2.2235,-2.2173,-2.2173,-2.2171,-2.2188,-2.2176,-2.2171,-2.2153,-2.2145,-2.2157,-2.2159,-2.2163,-2.2278,-2.2155,-2.2159,-2.2161,-2.2389,-2.2394,-2.2399,0,0,0,0,0,0,-2.2181,-2.2188,-2.2235,-2.2207,-2.2211,-2.2178,-2.2198,-2.219,-2.22,-2.2174,-2.2167,-2.2169,-2.2154,-2.2158,-2.222,-2.2277,-2.216,-2.2163,-2.2385,-2.2391,-2.2397,-2.2508,0,0,0,0,0,0,-2.2179,-2.2188,-2.2223,-2.2208,-2.2213,-2.2291,-2.2201,-2.2193,-2.2206,-2.2196,-2.2187,-2.2183,-2.2151,-2.2215,-2.2224,-2.228,-2.2166,-2.2379,-2.2387,-2.2395,-2.2499,-2.2517,-2.2532,0,0,0,0,0,-2.2177,-2.2255,-2.2225,-2.2232,-2.2256,-2.2294,-2.2297,-2.2259,-2.2211,-2.2247,-2.2231,-2.2183,-2.2269,-2.2222,-2.2231,-2.2289,-2.2376,-2.2385,-2.2394,-2.2491,-2.2513,-2.2532,0,0,0,0,0,0,-2.2278,-2.2252,-2.2219,-2.2294,-2.2297,-2.2278,-2.2323,-2.2283,-2.23,-2.2291,-2.2243,-2.2242,-2.2312,-2.2306,-2.2255,-2.2384,-2.2314,-2.2325,-2.2385,-2.2406,-2.2422,-2.2423,-2.2169,0,0,0,0,0,-2.2309,-2.2341,-2.2316,-2.2385,-2.2388,-2.2356,-2.2371,-2.2341,-2.2343,-2.2344,-2.2332,-2.2337,-2.2365,-2.2385,-2.2409,-2.2497,-2.2496,-2.2542,-2.2558,-2.2572,-2.2583,-2.2632,-2.2653,-2.2429,-2.2429,-2.2429,0,0,-2.2373,-2.2363,-2.2386,-2.2405,-2.2404,-2.2441,-2.2357,-2.2398,-2.2426,-2.235,-2.2408,-2.24,-2.2402,-2.2479,-2.2512,-2.2476,-2.2645,-2.2584,-2.2595,-2.2599,-2.2644,-2.2665,-2.2684,-2.2435,-2.2434,-2.2433,0,0,-2.2509,-2.2504,-2.2561,-2.2562,-2.2562,-2.254,-2.2554,-2.2541,-2.2533,-2.259,-2.2535,-2.2568,-2.2616,-2.2621,-2.263,-2.2771,-2.2728,-2.278,-2.2868,-2.2917,-2.2934,-2.295,-2.3003,-2.3022,-2.2791,-2.2791,-2.2791,0,-2.259,-2.2641,-2.2596,-2.2642,-2.2653,-2.2586,-2.2646,-2.2649,-2.2657,-2.2667,-2.2627,-2.2689,-2.2685,-2.2763,-2.2798,-2.2806,-2.2823,-2.2781,-2.2935,-2.295,-2.2964,-2.3014,-2.3034,-2.2797,-2.2797,-2.2796,-2.2795,0,-2.2741,-2.2778,-2.2825,-2.2834,-2.285,-2.2903,-2.2868,-2.289,-2.286,-2.2843,-2.2904,-2.2897,-2.2921,-2.2936,-2.2906,-2.3011,-2.2989,-2.2943,-2.2872,-2.2993,-2.3039,-2.3057,-2.2807,-2.2804,-2.2802,-2.2801,0,0,-2.2941,-2.2926,-2.2944,-2.2949,-2.2944,-2.2972,-2.3023,-2.3044,-2.3066,-2.3074,-2.3117,-2.3161,-2.3118,-2.3129,-2.3099,-2.3141,-2.3257,-2.309,-2.3089,-2.3123,-2.3375,-2.3412,-2.3434,-2.3228,-2.3231,-2.3234,-2.3376,0,-2.3075,-2.3159,-2.3122,-2.3211,-2.3245,-2.3183,-2.3227,-2.3231,-2.3217,-2.3245,-2.323,-2.3263,-2.3203,-2.3209,-2.3248,-2.3234,-2.3307,-2.3223,-2.327,-2.3272,-2.3273,-2.3458,-2.3496,-2.363,-2.3393,-2.3396,-2.3398,0,-2.3242,-2.3257,-2.335,-2.3341,-2.3354,-2.3394,-2.3413,-2.344,-2.3444,-2.3431,-2.3444,-2.3405,-2.3456,-2.3385,-2.3456,-2.3401,-2.3417,-2.3414,-2.3418,-2.3422,-2.3344,-2.347,-2.3671,-2.3692,-2.3426,-2.3423,-2.3421,0,-2.3382,-2.3425,-2.3487,-2.3492,-2.3483,-2.3513,-2.3511,-2.351,-2.3527,-2.3543,-2.3554,-2.3577,-2.359,-2.361,-2.358,-2.353,-2.3657,-2.3582,-2.365,-2.3651,-2.368,-2.3679,-2.389,-2.3688,-2.3688,-2.3687,-2.3687,0,-2.3536,-2.3596,-2.355,-2.3588,-2.3654,-2.3611,-2.3678,-2.3669,-2.367,-2.3707,-2.3654,-2.369,-2.3647,-2.368,-2.3656,-2.3721,-2.3726,-2.3719,-2.3713,-2.3725,-2.3727,-2.3737,-2.3728,-2.3692,-2.3691,-2.369,-2.3689,0,-2.3704,-2.3675,-2.3738,-2.3724,-2.3722,-2.3772,-2.3761,-2.3797,-2.3779,-2.3827,-2.3836,-2.381,-2.3846,-2.3817,-2.3852,-2.3837,-2.3923,-2.3902,-2.3922,-2.3917,-2.3987,-2.3982,-2.4213,-2.4243,-2.402,-2.4022,-2.4024,0,-2.3805,-2.3849,-2.3841,-2.3861,-2.3862,-2.3896,-2.3913,-2.3873,-2.3893,-2.3902,-2.3938,-2.3969,-2.3992,-2.4053,-2.4038,-2.4066,-2.4047,-2.4126,-2.4051,-2.4063,-2.4051,-2.405,-2.4055,-2.4142,-2.4145,-2.4147,-2.4148,0,-2.3989,-2.3973,-2.3998,-2.402,-2.4042,-2.4057,-2.4068,-2.4088,-2.4048,-2.4074,-2.411,-2.4128,-2.4164,-2.4197,-2.422,-2.4219,-2.4179,-2.4172,-2.419,-2.4204,-2.4215,-2.4212,-2.3966,-2.4167,-2.4165,-2.4164,-2.4163,-2.4162,-2.4128,-2.4166,-2.4166,-2.4197,-2.4201,-2.4214,-2.4248,-2.4235,-2.4263,-2.429,-2.4265,-2.4309,-2.4314,-2.434,-2.4345,-2.438,-2.4348,-2.4373,-2.4379,-2.4387,-2.4398,-2.4207,-2.4384,-2.4384,-2.4383,-2.4383,-2.4382,0,-2.4311,-2.4309,-2.4337,-2.4355,-2.4381,-2.4338,-2.4349,-2.4374,-2.4413,-2.442,-2.4444,-2.4488,-2.452,-2.4508,-2.4537,-2.4568,-2.4551,-2.4578,-2.4576,-2.4577,-2.4424,-2.4407,-2.4591,-2.4591,-2.4591,-2.4591,-2.4591,-2.4591,-2.441,-2.4472,-2.4457,-2.4522,-2.4519,-2.4561,-2.4572,-2.4584,-2.459,-2.464,-2.4666,-2.4658,-2.4658,-2.4687,-2.4716,-2.4712,-2.4726,-2.4761,-2.4751,-2.4608,-2.4587,-2.4568,-2.4552,-2.4764,-2.4764,-2.4901,-2.4902,-2.4903]},{"header":{"parameterUnit":"m.s-1","parameterCategory":1,"la1":30.2991,"la2":30.254,"lo1":-89.0895,"lo2":-89.0444,"dy":0.0017,"dx":0.0017,"nx":28,"ny":28,"refTime":"2024-10-10T09:00:00:Z","depth":0,"parameterNumber":3,"parameterNumberName":"V-component_of_WINDS"},"data":[0,0,0,0,0,0,0,0,0,0,0,0,0,0,0,0,0,0,0,0,0,0,0,0,0,0,0,0,0,0,0,0,0,0,0,0,0,0,0,0,0,0,0,0,0,0,0,0,0,0,0,0,0,0,0,0,0,0,0.868,0.8679,0,0.8617,0.8616,0.8615,0.8591,0.8591,0.8592,0.8592,0.8521,0.8519,0.8517,0,0,0,0,0,0,0,0,0,0,0,0,0,0.8774,0.8772,0.868,0.8679,0.8678,0.8617,0.8616,0.8615,0.8591,0.8591,0.8592,0.8592,0.8522,0.852,0.8517,0,0,0,0,0,0,0,0,0,0,0,0,0,0.8724,0.8772,0.868,0.8659,0.8657,0.8617,0.8616,0.8615,0.8591,0.8591,0.8592,0.8592,0.8523,0.852,0.8517,0.8492,0,0,0.8507,0.8506,0,0,0,0,0,0,0,0,0.8727,0.872,0.8663,0.866,0.8658,0.8612,0.8623,0.8573,0.8591,0.8616,0.8592,0.8592,0.8551,0.8546,0.8533,0.8488,0.8485,0.8507,0.8505,0.8504,0.8503,0,0,0,0,0,0,0,0.873,0.8723,0.8655,0.8662,0.8659,0.8651,0.8644,0.8614,0.8582,0.8614,0.8612,0.8605,0.8549,0.8536,0.8531,0.8484,0.8507,0.8504,0.8502,0.8501,0.8414,0.8414,0,0,0,0,0,0,0.8738,0.8726,0.8657,0.8653,0.8694,0.8649,0.8641,0.8626,0.8583,0.8576,0.8605,0.8604,0.8541,0.8535,0.8528,0.8495,0.8504,0.8501,0.8499,0.8414,0.8414,0.8413,0,0,0,0,0,0,0.874,0.8732,0.8659,0.8689,0.8679,0.8647,0.863,0.8625,0.8611,0.8576,0.857,0.8597,0.8541,0.8533,0.8501,0.8492,0.85,0.8497,0.8415,0.8414,0.8414,0.8429,0,0,0,0,0,0,0.8743,0.8733,0.8724,0.8689,0.8678,0.8635,0.863,0.8624,0.8607,0.8605,0.8567,0.8561,0.8541,0.8506,0.8498,0.8488,0.8494,0.8416,0.8415,0.8414,0.8429,0.8429,0.8429,0,0,0,0,0,0.8746,0.873,0.8724,0.8716,0.8667,0.8634,0.8628,0.8606,0.8606,0.8596,0.8574,0.8562,0.8495,0.8503,0.8494,0.8483,0.8416,0.8415,0.8414,0.8429,0.8429,0.8429,0,0,0,0,0,0,0.8764,0.8725,0.8718,0.869,0.8666,0.863,0.8617,0.8607,0.8581,0.858,0.8553,0.8544,0.8514,0.8495,0.8505,0.8455,0.8454,0.8452,0.8469,0.8469,0.8468,0.8473,0.8492,0,0,0,0,0,0.8765,0.8744,0.871,0.8689,0.8677,0.865,0.8635,0.8621,0.8593,0.8582,0.8557,0.8529,0.8502,0.8484,0.8457,0.8426,0.8417,0.8414,0.8414,0.8414,0.8412,0.8393,0.8391,0.841,0.841,0.841,0,0,0.8766,0.8742,0.873,0.8692,0.8671,0.8648,0.8641,0.8617,0.8599,0.8578,0.8547,0.8527,0.8494,0.8463,0.8448,0.8446,0.8404,0.8413,0.8413,0.841,0.8391,0.8389,0.8388,0.8409,0.8409,0.841,0,0,0.8756,0.8737,0.8717,0.8696,0.8666,0.8648,0.8643,0.8608,0.8595,0.8564,0.8548,0.8524,0.8478,0.8455,0.8437,0.8419,0.8406,0.841,0.8409,0.8391,0.8389,0.8387,0.8379,0.8377,0.8408,0.8408,0.8408,0,0.8761,0.8727,0.8707,0.8684,0.8667,0.8649,0.8627,0.8608,0.8569,0.8557,0.8556,0.8497,0.8474,0.8436,0.8431,0.8418,0.841,0.8414,0.8391,0.839,0.8388,0.838,0.8377,0.8409,0.8409,0.8408,0.8408,0,0.8734,0.8711,0.8698,0.8663,0.8644,0.8621,0.8596,0.8579,0.8567,0.8548,0.8515,0.8486,0.8453,0.8443,0.843,0.8403,0.8402,0.8397,0.8395,0.8387,0.8379,0.8376,0.8409,0.8409,0.8409,0.8409,0,0,0.8733,0.8688,0.8683,0.8667,0.8631,0.8612,0.8588,0.8557,0.8542,0.8516,0.8493,0.8455,0.8449,0.8429,0.8413,0.8397,0.8382,0.8393,0.8392,0.8391,0.8349,0.8353,0.835,0.8374,0.8374,0.8373,0.8351,0,0.8718,0.8676,0.8657,0.8623,0.86,0.8582,0.8561,0.8536,0.8517,0.8494,0.8472,0.8445,0.8441,0.8428,0.8412,0.8388,0.8373,0.8389,0.8351,0.835,0.8359,0.8345,0.8349,0.833,0.8348,0.8347,0.8347,0,0.8695,0.867,0.8634,0.8601,0.8591,0.8572,0.8541,0.852,0.849,0.8477,0.8455,0.844,0.8411,0.8413,0.8372,0.8383,0.8367,0.8352,0.8351,0.8346,0.8347,0.8338,0.8323,0.832,0.8342,0.8342,0.8343,0,0.8697,0.8654,0.8627,0.8614,0.8574,0.8562,0.8544,0.8515,0.8497,0.847,0.8457,0.8427,0.8409,0.8384,0.836,0.8364,0.8321,0.8321,0.8308,0.8309,0.8299,0.83,0.828,0.8291,0.8291,0.8291,0.8291,0,0.8681,0.866,0.8627,0.8611,0.8585,0.8562,0.8537,0.8518,0.8492,0.847,0.8452,0.8431,0.8401,0.8375,0.8356,0.8325,0.8317,0.8305,0.8299,0.8306,0.8307,0.8293,0.8293,0.829,0.829,0.829,0.8291,0,0.8679,0.8657,0.8626,0.8591,0.8582,0.8565,0.8534,0.8516,0.8497,0.8468,0.846,0.8429,0.8398,0.8372,0.8331,0.8317,0.8284,0.8279,0.8295,0.8292,0.8281,0.8282,0.825,0.8244,0.826,0.826,0.826,0,0.867,0.8653,0.8617,0.8602,0.8585,0.856,0.8542,0.8519,0.85,0.8465,0.845,0.8419,0.8392,0.8343,0.8315,0.8283,0.8276,0.8267,0.827,0.8277,0.8274,0.8275,0.8272,0.8266,0.8266,0.8266,0.8266,0,0.8656,0.8646,0.8622,0.8593,0.8573,0.8549,0.8524,0.8512,0.8483,0.8463,0.8432,0.8411,0.8369,0.8337,0.8302,0.8282,0.8268,0.8266,0.8261,0.8266,0.8276,0.8269,0.8293,0.8266,0.8266,0.8266,0.8266,0.8266,0.865,0.8633,0.8605,0.8578,0.8557,0.8535,0.8516,0.8494,0.8469,0.8434,0.8421,0.8389,0.8358,0.831,0.829,0.8262,0.8261,0.8254,0.8252,0.825,0.8251,0.8281,0.8256,0.8256,0.8256,0.8256,0.8256,0,0.8634,0.8615,0.8591,0.8557,0.8535,0.8527,0.8499,0.848,0.8453,0.8426,0.84,0.8364,0.8332,0.8302,0.8269,0.8253,0.8246,0.8245,0.8245,0.824,0.8255,0.8262,0.8251,0.8251,0.8251,0.8251,0.8251,0.8251,0.8623,0.8595,0.8581,0.8541,0.8522,0.8492,0.8476,0.8454,0.8433,0.8393,0.8368,0.8349,0.832,0.8284,0.8254,0.8246,0.8234,0.8234,0.8224,0.8238,0.8239,0.824,0.8246,0.8232,0.8232,0.8211,0.8211,0.8211]}]]